User: anonymous   Login
Location: Colonie
(42.7179°N, 73.8335°W)
Time: 10:39:58
(UTC+00:00)
Language:

Cosmos 1758 Rocket - Orbit

View from above orbital plane
View from above orbital plane
View from above satellite
View from above satellite

Ground track
Ground track

The orbit data is extracted from the following two-line orbital elements,

1 16792U 86046B   21016.87072810  .00000082  00000-0  70686-5 0  9994
2 16792  82.4814  49.9249 0022857 302.4771 230.7631 14.83267974847922
Epoch (UTC): 16 January 2021 20:53:50
Eccentricity: 0.0022857
inclination: 82.4814°
perigee height: 603 km
apogee height: 635 km
right ascension of ascending node: 49.9249°
argument of perigee: 302.4771°
revolutions per day: 14.83267974
mean anomaly at epoch: 230.7631°
orbit number at epoch: 84792

The dashed part of the orbit path shows where the satellite is in the earth's shadow,  

DLR